STARLINK-37903

Last updated on Sun Aug 09 2026 00:02:04 GMT+0000 (Coordinated Universal Time)

1 69945U 26157C 26220.11357934 .00016286 00000+0 30009-3 0 9996 2 69945 53.1599 177.8676 0001150 93.5198 266.5943 15.49325146 4695
UTC large
Height (km)
Speed (km/s)
/
Latitude / Longitude
Inclination (degrees)
Orbital Period (minutes)
Azimuth
Elevation
Range (km)
Doppler Factor

Next 0 passes for location: London (51.5072 / 0.1276)

No passes found over London.
STARLINK-37903